DW5338 Weather Reports


Display with metric or nautical units.
time (UTC)temp
F
wind
direction
speed
MPH
gust
MPH
rain 1hr
in
rain 24hr
in
rain mn
in
humidity
%
barometer
mb
20260904092016 59 225 6.0 10.0 0.00 0.00 0.00 37 1022.9
20260904091016 59 203 5.0 8.0 0.00 0.00 0.00 37 1022.9
20260904090042 59 225 5.0 7.0 0.00 0.00 0.00 36 1023.0
20260904085021 60 225 4.0 7.0 0.00 0.00 0.00 36 1023.0
20260904084021 60 225 5.0 10.0 0.00 0.00 0.00 35 1023.1
20260904083021 60 225 5.0 12.0 0.00 0.00 0.00 36 1023.1
20260904082101 60 225 6.0 12.0 0.00 0.00 0.00 36 1023.1
20260904081016 60 225 5.0 9.0 0.00 0.00 0.00 36 1022.9
20260904080021 60 225 5.0 8.0 0.00 0.00 0.00 36 1022.9
20260904075021 59 225 6.0 11.0 0.00 0.00 0.00 37 1022.9
20260904074022 59 225 5.0 11.0 0.00 0.00 0.00 39 1022.9
20260904073021 59 248 5.0 12.0 0.00 0.00 0.00 40 1022.9
20260904072021 59 225 6.0 10.0 0.00 0.00 0.00 40 1023.1
20260904071021 59 225 4.0 9.0 0.00 0.00 0.00 42 1023.2
20260904070016 59 225 7.0 12.0 0.00 0.00 0.00 42 1023.2
20260904065021 59 225 7.0 12.0 0.00 0.00 0.00 43 1023.2
20260904064021 59 225 9.0 15.0 0.00 0.00 0.00 43 1023.2
20260904063021 59 225 9.0 14.0 0.00 0.00 0.00 44 1023.3
20260904062021 60 225 7.0 13.0 0.00 0.00 0.00 43 1023.2
20260904061016 59 225 8.0 13.0 0.00 0.00 0.00 43 1023.3
20260904060021 59 225 8.0 12.0 0.00 0.00 0.00 44 1023.3
20260904055021 59 225 7.0 10.0 0.00 0.00 0.00 44 1023.0
20260904054021 59 225 7.0 11.0 0.00 0.00 0.00 44 1023.0
20260904053021 58 203 6.0 10.0 0.00 0.00 0.00 46 1022.7
20260904052021 59 203 6.0 9.0 0.00 0.00 0.00 44 1022.9
20260904051021 60 225 8.0 16.0 0.00 0.00 0.00 44 1023.0
20260904050021 59 225 6.0 10.0 0.00 0.00 0.00 45 1023.1
20260904045021 58 203 7.0 9.0 0.00 0.00 0.00 47 1022.7
20260904044021 59 203 6.0 8.0 0.00 0.00 0.00 45 1023.0
20260904043041 59 225 5.0 8.0 0.00 0.00 0.00 46 1023.0
20260904042021 60 203 6.0 8.0 0.00 0.00 0.00 45 1022.9
20260904041021 61 225 5.0 9.0 0.00 0.00 0.00 43 1023.1
20260904040021 60 225 4.0 7.0 0.00 0.00 0.00 44 1023.3
20260904035021 61 203 6.0 10.0 0.00 0.00 0.00 43 1023.3
20260904034021 61 225 6.0 8.0 0.00 0.00 0.00 44 1023.3
20260904033021 62 203 6.0 8.0 0.00 0.00 0.00 42 1023.3
20260904032015 63 225 3.0 5.0 0.00 0.00 0.00 40 1023.2
20260904031021 64 248 3.0 6.0 0.00 0.00 0.00 38 1023.4
20260904030021 64 270 5.0 8.0 0.00 0.00 0.00 37 1023.4
20260904025015 66 293 6.0 7.0 0.00 0.00 0.00 36 1023.4
20260904024021 67 315 4.0 5.0 0.00 0.00 0.00 35 1023.5
20260904023016 67 315 4.0 5.0 0.00 0.00 0.00 34 1023.3
20260904022021 67 0 3.0 5.0 0.00 0.00 0.00 34 1023.1
20260904021015 68 23 4.0 8.0 0.00 0.00 0.00 32 1023.1
20260904020021 69 45 6.0 15.0 0.00 0.00 0.00 31 1023.2
20260904015021 69 45 5.0 8.0 0.00 0.00 0.00 31 1022.9
20260904014021 69 45 3.0 6.0 0.00 0.00 0.00 30 1022.9
20260904013015 70 68 3.0 5.0 0.00 0.00 0.00 30 1022.9
20260904012021 70 45 3.0 8.0 0.00 0.00 0.00 30 1022.7
20260904011021 71 68 4.0 7.0 0.00 0.00 0.00 29 1023.0
20260904010021 72 68 5.0 11.0 0.00 0.00 0.00 29 1022.9
20260904005021 72 68 6.0 11.0 0.00 0.00 0.00 29 1022.7
20260904004015 72 68 4.0 12.0 0.00 0.00 0.00 28 1022.6
20260904003021 73 68 6.0 11.0 0.00 0.00 0.00 27 1022.9
20260904002020 74 68 3.0 9.0 0.00 0.00 0.00 27 1022.8
20260904001021 74 113 4.0 11.0 0.00 0.00 0.00 26 1022.8
20260904000021 74 135 4.0 7.0 0.00 0.00 0.00 27 1022.8
20260903235035 74 113 3.0 6.0 0.00 0.00 0.00 27 1022.9
20260903234021 74 45 4.0 8.0 0.00 0.00 0.00 27 1022.9
20260903233021 74 45 6.0 12.0 0.00 0.00 0.00 27 1022.9
20260903232015 75 45 4.0 10.0 0.00 0.00 0.00 28 1023.0
20260903231020 74 68 6.0 13.0 0.00 0.00 0.00 27 1022.9
20260903230021 74 45 5.0 12.0 0.00 0.01 0.00 28 1022.9
20260903225035 74 68 7.0 13.0 0.00 0.01 0.00 28 1022.8
20260903224041 75 45 2.0 7.0 0.00 0.01 0.00 27 1023.1
20260903223019 75 68 3.0 9.0 0.00 0.03 0.00 27 1023.1
20260903222015 74 68 4.0 9.0 0.00 0.03 0.00 28 1023.2
20260903221021 73 45 6.0 14.0 0.00 0.03 0.00 29 1023.0
20260903220020 75 45 6.0 14.0 0.00 0.03 0.00 27 1023.3
20260903215015 74 113 2.0 8.0 0.00 0.03 0.00 28 1023.3
20260903214021 72 45 2.0 10.0 0.00 0.03 0.00 29 1023.0
20260903213020 72 45 6.0 14.0 0.00 0.03 0.00 29 1023.0
20260903212015 73 45 8.0 14.0 0.00 0.03 0.00 28 1023.2
20260903211020 73 45 6.0 15.0 0.00 0.03 0.00 30 1023.1
20260903210020 73 45 8.0 20.0 0.00 0.03 0.00 29 1023.2
20260903205015 73 45 4.0 16.0 0.00 0.03 0.00 30 1023.2
20260903204015 72 45 7.0 15.0 0.00 0.03 0.00 30 1023.1
20260903203020 72 45 10.0 14.0 0.00 0.03 0.00 30 1023.4
20260903202015 72 45 9.0 16.0 0.00 0.03 0.00 31 1023.7
20260903201021 72 45 7.0 12.0 0.00 0.03 0.00 31 1023.7
20260903200015 72 45 9.0 16.0 0.00 0.03 0.00 30 1023.5
20260903195020 72 45 8.0 18.0 0.00 0.03 0.00 30 1024.2
20260903194015 72 68 5.0 14.0 0.00 0.03 0.00 30 1024.3
20260903193015 71 68 5.0 12.0 0.00 0.03 0.00 31 1024.1
20260903192020 72 45 5.0 12.0 0.00 0.03 0.00 31 1024.1
20260903191015 73 45 1.0 2.0 0.00 0.03 0.00 30 1024.3
20260903190017 74 90 4.0 13.0 0.00 0.03 0.00 30 1024.4
20260903185022 74 23 5.0 13.0 0.00 0.03 0.00 29 1024.2
20260903184017 75 135 3.0 11.0 0.00 0.03 0.00 26 1024.5
20260903183022 73 293 3.0 8.0 0.00 0.03 0.00 28 1024.2
20260903182017 73 270 2.0 5.0 0.00 0.03 0.00 28 1024.5
20260903181022 74 135 1.0 4.0 0.00 0.03 0.00 28 1024.8
20260903180022 72 180 3.0 7.0 0.00 0.03 0.00 29 1024.8
20260903175042 72 248 3.0 7.0 0.00 0.03 0.00 31 1024.7
20260903174016 70 293 2.0 6.0 0.00 0.03 0.00 32 1024.6
20260903173042 69 293 5.0 10.0 0.00 0.03 0.00 32 1024.7
20260903172022 69 270 7.0 13.0 0.00 0.03 0.00 32 1024.5
20260903171022 69 270 9.0 19.0 0.00 0.03 0.00 32 1024.5
20260903170036 70 270 3.0 14.0 0.00 0.03 0.00 32 1024.7
20260903165042 69 293 4.0 15.0 0.00 0.03 0.00 32 1024.5
20260903164037 68 270 3.0 12.0 0.00 0.03 0.00 35 1024.6
20260903163016 67 248 8.0 15.0 0.00 0.03 0.00 33 1024.3
20260903162042 68 225 6.0 17.0 0.00 0.03 0.00 34 1024.2
20260903161016 67 248 8.0 16.0 0.00 0.03 0.00 36 1024.3
20260903160022 66 203 8.0 14.0 0.00 0.03 0.00 36 1024.2
20260903155017 66 225 9.0 18.0 0.00 0.03 0.00 37 1024.1
20260903154017 66 180 4.0 10.0 0.00 0.03 0.00 41 1024.2
20260903153042 65 203 5.0 12.0 0.00 0.03 0.00 40 1024.1
20260903152022 65 203 6.0 10.0 0.00 0.03 0.00 40 1024.1
20260903151016 64 180 5.0 11.0 0.00 0.03 0.00 42 1023.9
20260903150022 64 180 5.0 13.0 0.00 0.03 0.00 44 1023.9
20260903145016 63 180 6.0 13.0 0.00 0.03 0.00 44 1023.9
20260903144016 63 180 6.0 11.0 0.00 0.03 0.00 44 1023.8
20260903143017 62 180 8.0 15.0 0.00 0.03 0.00 44 1023.6
20260903142020 62 180 7.0 13.0 0.00 0.03 0.00 45 1023.8
20260903141016 62 203 8.0 16.0 0.00 0.03 0.00 46 1023.8
20260903140022 61 180 6.0 14.0 0.00 0.03 0.00 47 1023.7
20260903135036 61 225 5.0 13.0 0.00 0.03 0.00 48 1023.9
20260903134022 60 203 4.0 8.0 0.00 0.03 0.00 49 1023.6
20260903133016 59 203 4.0 10.0 0.00 0.03 0.00 50 1023.4
20260903132022 59 203 5.0 12.0 0.00 0.03 0.00 50 1023.6
20260903131017 58 203 5.0 9.0 0.00 0.03 0.00 52 1023.3
20260903130022 57 203 5.0 9.0 0.00 0.03 0.00 53 1023.3
20260903125016 57 203 5.0 10.0 0.00 0.03 0.00 54 1023.1
20260903124022 56 203 5.0 8.0 0.00 0.03 0.00 55 1023.0
20260903123017 56 225 4.0 8.0 0.00 0.03 0.00 54 1023.0
20260903122022 55 203 5.0 8.0 0.00 0.03 0.00 56 1022.9
20260903121022 55 203 4.0 8.0 0.00 0.03 0.00 56 1022.9
20260903120022 54 225 5.0 8.0 0.00 0.03 0.00 58 1022.7
20260903115042 54 203 4.0 8.0 0.00 0.03 0.00 59 1022.1
20260903114022 54 203 4.0 7.0 0.00 0.03 0.00 60 1022.2
20260903113022 54 225 4.0 7.0 0.00 0.03 0.00 59 1022.1
20260903112017 54 225 4.0 6.0 0.00 0.03 0.00 59 1021.9
20260903111022 54 225 4.0 6.0 0.00 0.03 0.00 60 1021.8
20260903110022 55 225 4.0 6.0 0.00 0.03 0.00 58 1022.1
20260903105022 55 225 3.0 6.0 0.00 0.03 0.00 58 1023.0
20260903104042 54 225 4.0 6.0 0.00 0.03 0.00 59 1022.8
20260903103016 55 225 4.0 7.0 0.00 0.03 0.00 59 1022.9
20260903102016 55 225 4.0 6.0 0.00 0.03 0.00 58 1023.0
20260903101016 55 203 4.0 5.0 0.00 0.03 0.00 58 1022.9
20260903100016 56 225 4.0 6.0 0.00 0.03 0.00 58 1023.3
20260903095022 56 225 5.0 8.0 0.00 0.03 0.00 57 1023.4
20260903094042 57 225 5.0 10.0 0.00 0.03 0.00 55 1023.6
20260903093016 57 203 4.0 7.0 0.00 0.03 0.00 54 1023.5